Location: A�t �Alizem
(31.2076°N, 8.7872°W)
Time: 05:25:52
(UTC+00:00)

Cosmos 2218 Rocket - Pass Details

Date: 27 November 2020
Orbit: 956 x 1005 km, 82.9° (Epoch: 25 January)

Event Time Altitude Azimuth Distance (km) Brightness Sun altitude
Rises 18:15:17 0° 1° (N) 3,639 6.8 -9.3°
Reaches altitude 10° 18:17:54 10° 7° (N) 2,690 6.1 -9.8°
Maximum altitude 18:23:48 48° 81° (E) 1,238 4.2 -11.0°
Drops below altitude 10° 18:29:41 10° 155° (SSE) 2,689 6.2 -12.2°
Sets 18:32:17 0° 160° (SSE) 3,637 7.0 -12.7°
